UAE84J OMDB-EDDF

Flight info

Callsign UAE84J
Flight time N/A
Altitude 31000
Route ANVIX L223 TARDI N629 BOTAM Y855 LAKLU/N0491F320 Q204 NALKI G652 TOKRA DCT ALROK DCT BOSOB DCT ITRUX Y511 PMA Z712 WEJ L677 MENLI/N0485F340 L677 GESON Q777 RASDA DCT OTHON UN128 RDS UL609 PIPEN/N0474F360 UL609 MES DCT EVIVI DCT OKANA DCT NIVIS DCT BABIT DCT ARSIN DCT BUDEX DCT IPDUL DCT RAPET T170 VAGAB/N0447F240 T170 GAPLA T178 KERAX KERAX5A
Aircraft A339/H-SADE1E2E3GHIJ3J5M1P2RWXY/LB2D1

Departure

Time 2026-04-25 08:29
Airport Dubai International Airport (OMDB)

Arrival

Time N/A
Airport Frankfurt Main Airport (EDDF)
Time Latitude Longitude Altitude Speed Heading
2026-04-25 08:04 25.24878 55.36296 27 ft 0 kts 211°
2026-04-25 08:13 25.24894 55.36307 27 ft 4 kts 210°
2026-04-25 08:13 25.24917 55.36322 25 ft 4 kts 211°
2026-04-25 08:13 25.24937 55.36334 26 ft 3 kts 215°
2026-04-25 08:14 25.24954 55.36363 25 ft 4 kts 304°
2026-04-25 08:14 25.24939 55.36387 24 ft 4 kts 302°
2026-04-25 08:14 25.24925 55.36412 27 ft 4 kts 302°
2026-04-25 08:14 25.24920 55.36421 28 ft 0 kts 301°
2026-04-25 08:17 25.24922 55.36417 26 ft 2 kts 301°
2026-04-25 08:17 25.24933 55.36398 26 ft 4 kts 301°
2026-04-25 08:17 25.24962 55.36346 26 ft 11 kts 301°
2026-04-25 08:18 25.25010 55.36258 30 ft 16 kts 301°
2026-04-25 08:18 25.25076 55.36139 28 ft 20 kts 301°
2026-04-25 08:18 25.25150 55.36004 22 ft 21 kts 301°
2026-04-25 08:18 25.25225 55.35868 20 ft 20 kts 301°
2026-04-25 08:19 25.25298 55.35736 18 ft 20 kts 301°
2026-04-25 08:19 25.25368 55.35607 17 ft 19 kts 301°
2026-04-25 08:19 25.25434 55.35488 19 ft 18 kts 301°
2026-04-25 08:19 25.25495 55.35379 19 ft 17 kts 301°
2026-04-25 08:20 25.25562 55.35258 24 ft 19 kts 301°
2026-04-25 08:20 25.25627 55.35168 27 ft 12 kts 329°
2026-04-25 08:20 25.25718 55.35187 25 ft 16 kts 31°
2026-04-25 08:20 25.25858 55.35277 10 ft 28 kts 30°
2026-04-25 08:21 25.25971 55.35374 10 ft 5 kts 55°
2026-04-25 08:21 25.25972 55.35375 10 ft 0 kts 55°
2026-04-25 08:21 25.25972 55.35376 10 ft 1 kts 55°
2026-04-25 08:21 25.25980 55.35392 10 ft 5 kts 63°
2026-04-25 08:22 25.25993 55.35462 9 ft 13 kts 87°
2026-04-25 08:22 25.25962 55.35578 9 ft 19 kts 116°
2026-04-25 08:22 25.25883 55.35723 8 ft 25 kts 123°
2026-04-25 08:22 25.25780 55.35900 10 ft 29 kts 122°
2026-04-25 08:23 25.25671 55.36101 14 ft 30 kts 120°
2026-04-25 08:23 25.25567 55.36292 15 ft 29 kts 121°
2026-04-25 08:23 25.25453 55.36496 15 ft 34 kts 123°
2026-04-25 08:23 25.25324 55.36729 15 ft 36 kts 121°
2026-04-25 08:24 25.25197 55.36958 20 ft 34 kts 121°
2026-04-25 08:24 25.25082 55.37164 26 ft 29 kts 121°
2026-04-25 08:24 25.24978 55.37351 30 ft 27 kts 121°
2026-04-25 08:24 25.24882 55.37524 30 ft 26 kts 121°
2026-04-25 08:25 25.24790 55.37691 31 ft 25 kts 121°
2026-04-25 08:25 25.24702 55.37853 30 ft 23 kts 121°
2026-04-25 08:25 25.24685 55.37955 35 ft 8 kts 67°
2026-04-25 08:25 25.24697 55.37967 36 ft 0 kts 46°
2026-04-25 08:27 25.24720 55.37986 37 ft 9 kts 36°
2026-04-25 08:27 25.24772 55.38020 39 ft 8 kts 20°
2026-04-25 08:28 25.24819 55.37990 38 ft 10 kts 310°
2026-04-25 08:28 25.24873 55.37897 39 ft 24 kts 301°
2026-04-25 08:28 25.25092 55.37501 38 ft 96 kts 301°
2026-04-25 08:28 25.25553 55.36670 29 ft 155 kts 301°
2026-04-25 08:29 25.26195 55.35517 206 ft 186 kts 301°
2026-04-25 08:29 25.26857 55.34319 879 ft 182 kts 301°
2026-04-25 08:29 25.27523 55.33108 1413 ft 187 kts 302°
2026-04-25 08:29 25.28243 55.31820 1663 ft 208 kts 302°
2026-04-25 08:30 25.28965 55.30348 1852 ft 227 kts 290°
2026-04-25 08:30 25.29218 55.28622 2361 ft 233 kts 269°
2026-04-25 08:30 25.28885 55.26873 2990 ft 232 kts 249°
2026-04-25 08:30 25.28114 55.25314 3591 ft 231 kts 241°
2026-04-25 08:31 25.27307 55.23743 3897 ft 244 kts 242°
2026-04-25 08:31 25.26474 55.22057 4216 ft 252 kts 244°
2026-04-25 08:31 25.25674 55.20328 4722 ft 253 kts 245°
2026-04-25 08:31 25.24879 55.18620 5168 ft 255 kts 238°
2026-04-25 08:32 25.23602 55.17261 5660 ft 259 kts 210°
2026-04-25 08:32 25.21879 55.16692 6152 ft 264 kts 183°
2026-04-25 08:32 25.20049 55.16907 6623 ft 266 kts 166°
2026-04-25 08:32 25.18403 55.17853 7103 ft 268 kts 139°
2026-04-25 08:33 25.17302 55.19471 7578 ft 268 kts 116°
2026-04-25 08:33 25.16469 55.21357 7793 ft 280 kts 117°
2026-04-25 08:33 25.15568 55.23321 7986 ft 293 kts 118°
2026-04-25 08:33 25.14610 55.25342 8345 ft 297 kts 119°
2026-04-25 08:34 25.13642 55.27353 8852 ft 297 kts 119°
2026-04-25 08:34 25.12661 55.29379 9276 ft 300 kts 119°
2026-04-25 08:34 25.11691 55.31383 9737 ft 301 kts 120°
2026-04-25 08:34 25.10699 55.33447 10183 ft 302 kts 118°
2026-04-25 08:35 25.09818 55.35566 10612 ft 304 kts 115°
2026-04-25 08:35 25.08952 55.37678 11046 ft 305 kts 116°
2026-04-25 08:35 25.08070 55.39820 11515 ft 306 kts 116°
2026-04-25 08:35 25.07180 55.41974 11950 ft 309 kts 116°
2026-04-25 08:36 25.06296 55.44186 12107 ft 322 kts 115°
2026-04-25 08:36 25.05406 55.46512 12243 ft 335 kts 114°
2026-04-25 08:36 25.04498 55.48901 12368 ft 348 kts 114°
2026-04-25 08:36 25.03545 55.51401 12529 ft 358 kts 114°
2026-04-25 08:37 25.02572 55.53939 12979 ft 359 kts 114°
2026-04-25 08:37 25.01478 55.56432 13372 ft 360 kts 121°
2026-04-25 08:37 25.00189 55.58783 13775 ft 362 kts 122°
2026-04-25 08:37 24.98884 55.61173 14173 ft 363 kts 122°
2026-04-25 08:38 24.97586 55.63569 14563 ft 364 kts 122°
2026-04-25 08:38 24.96296 55.65952 14892 ft 367 kts 122°
2026-04-25 08:38 24.94983 55.68384 15266 ft 369 kts 122°
2026-04-25 08:38 24.93602 55.70785 15635 ft 369 kts 128°
2026-04-25 08:39 24.92072 55.73068 15993 ft 371 kts 128°
2026-04-25 08:39 24.90556 55.75340 16352 ft 373 kts 128°
2026-04-25 08:39 24.89012 55.77665 16703 ft 375 kts 128°
2026-04-25 08:39 24.87468 55.79994 17029 ft 378 kts 128°
2026-04-25 08:40 24.85914 55.82338 17395 ft 379 kts 128°
2026-04-25 08:40 24.84375 55.84656 17854 ft 377 kts 128°
2026-04-25 08:40 24.82810 55.87000 18185 ft 380 kts 128°
2026-04-25 08:40 24.81213 55.89357 18478 ft 383 kts 128°
2026-04-25 08:41 24.79608 55.91716 18729 ft 386 kts 128°
2026-04-25 08:41 24.77943 55.94002 19002 ft 388 kts 134°
2026-04-25 08:41 24.76008 55.96081 19256 ft 390 kts 140°
2026-04-25 08:41 24.73998 55.98114 19546 ft 393 kts 139°
2026-04-25 08:42 24.71979 56.00176 19813 ft 397 kts 139°
2026-04-25 08:42 24.69952 56.02259 20119 ft 399 kts 139°
2026-04-25 08:42 24.67914 56.04356 20410 ft 402 kts 139°
2026-04-25 08:42 24.65885 56.06446 20677 ft 406 kts 139°
2026-04-25 08:43 24.63808 56.08586 20928 ft 410 kts 139°
2026-04-25 08:43 24.61722 56.10736 21223 ft 412 kts 139°
2026-04-25 08:43 24.59617 56.12903 21532 ft 415 kts 139°
2026-04-25 08:43 24.57531 56.15055 21811 ft 418 kts 137°
2026-04-25 08:44 24.55554 56.17439 22092 ft 423 kts 132°
2026-04-25 08:44 24.53634 56.19913 22372 ft 426 kts 132°
2026-04-25 08:44 24.51694 56.22394 22650 ft 429 kts 133°
2026-04-25 08:44 24.49758 56.24861 22958 ft 431 kts 133°
2026-04-25 08:45 24.47789 56.27367 23254 ft 435 kts 133°
2026-04-25 08:45 24.45803 56.29893 23543 ft 438 kts 133°
2026-04-25 08:45 24.43805 56.32434 23805 ft 440 kts 133°
2026-04-25 08:45 24.41791 56.34988 24085 ft 441 kts 133°
2026-04-25 08:46 24.39805 56.37506 24344 ft 443 kts 133°
2026-04-25 08:46 24.37785 56.40072 24614 ft 444 kts 133°
2026-04-25 08:46 24.35747 56.42661 24891 ft 446 kts 133°
2026-04-25 08:46 24.33734 56.45217 25162 ft 448 kts 133°
2026-04-25 08:47 24.31689 56.47811 25437 ft 449 kts 133°
2026-04-25 08:47 24.29650 56.50444 25693 ft 452 kts 129°
2026-04-25 08:47 24.27808 56.53208 25971 ft 455 kts 127°
2026-04-25 08:47 24.25951 56.56026 26247 ft 456 kts 128°
2026-04-25 08:48 24.24076 56.58859 26516 ft 458 kts 128°
2026-04-25 08:48 24.22198 56.61689 26795 ft 460 kts 128°
2026-04-25 08:48 24.20309 56.64530 27073 ft 462 kts 128°
2026-04-25 08:48 24.18435 56.67347 27344 ft 463 kts 128°
2026-04-25 08:49 24.16530 56.70209 27611 ft 465 kts 128°
2026-04-25 08:49 24.14619 56.73078 27871 ft 467 kts 128°
2026-04-25 08:49 24.12696 56.75964 28146 ft 469 kts 128°
2026-04-25 08:49 24.10767 56.78858 28422 ft 471 kts 128°
2026-04-25 08:50 24.08831 56.81761 28697 ft 472 kts 128°
2026-04-25 08:50 24.06878 56.84669 28945 ft 474 kts 130°
2026-04-25 08:50 24.04650 56.87256 29168 ft 472 kts 142°
2026-04-25 08:50 24.01979 56.89328 29410 ft 470 kts 154°
2026-04-25 08:51 23.98990 56.90774 29645 ft 467 kts 165°
2026-04-25 08:51 23.95875 56.91618 29920 ft 466 kts 172°
2026-04-25 08:51 23.92676 56.92275 30145 ft 467 kts 172°
2026-04-25 08:51 23.89467 56.92961 30391 ft 469 kts 171°
2026-04-25 08:52 23.86262 56.93721 30644 ft 471 kts 170°
2026-04-25 08:52 23.83053 56.94539 30892 ft 473 kts 169°
2026-04-25 08:52 23.79885 56.95377 31079 ft 475 kts 169°
2026-04-25 08:52 23.76666 56.96241 31330 ft 476 kts 169°
2026-04-25 08:53 23.73435 56.97111 31565 ft 478 kts 169°
2026-04-25 08:53 23.70197 56.97982 31812 ft 479 kts 169°
2026-04-25 08:53 23.66948 56.98853 31904 ft 480 kts 169°
2026-04-25 08:54 23.60424 57.00599 31967 ft 490 kts 169°
2026-04-25 08:54 23.53755 57.02381 31986 ft 493 kts 168°
2026-04-25 08:55 23.47110 57.04159 31983 ft 493 kts 168°
2026-04-25 08:55 23.40453 57.05780 31990 ft 491 kts 175°
2026-04-25 08:56 23.33666 57.05733 32006 ft 485 kts 191°
2026-04-25 08:56 23.27106 57.04212 31994 ft 484 kts 194°
2026-04-25 08:57 23.20499 57.02650 32005 ft 484 kts 194°
2026-04-25 08:57 23.13940 57.01112 31999 ft 485 kts 194°
2026-04-25 08:58 23.08450 56.99825 32009 ft 485 kts 194°
2026-04-25 08:58 23.01832 56.98273 32009 ft 485 kts 194°
2026-04-25 08:59 22.95252 56.96727 32012 ft 485 kts 194°
2026-04-25 08:59 22.88654 56.95108 31997 ft 484 kts 199°
2026-04-25 08:59 22.85552 56.93710 31989 ft 481 kts 211°
2026-04-25 09:00 22.82781 56.91689 31987 ft 478 kts 222°
2026-04-25 09:00 22.80455 56.89132 31989 ft 475 kts 233°
2026-04-25 09:00 22.78672 56.86174 31990 ft 473 kts 244°
2026-04-25 09:01 22.75717 56.79778 31992 ft 473 kts 244°
2026-04-25 09:01 22.72724 56.73468 31983 ft 473 kts 244°
2026-04-25 09:02 22.69673 56.67127 31979 ft 473 kts 243°
2026-04-25 09:02 22.66638 56.60835 31949 ft 473 kts 243°
2026-04-25 09:03 22.63579 56.54500 31943 ft 474 kts 244°
2026-04-25 09:03 22.60531 56.48194 31953 ft 475 kts 244°
2026-04-25 09:04 22.57456 56.41841 31951 ft 475 kts 244°
2026-04-25 09:04 22.54406 56.35547 31940 ft 475 kts 244°
2026-04-25 09:05 22.51324 56.29187 31931 ft 475 kts 243°
2026-04-25 09:05 22.48283 56.22917 31918 ft 472 kts 243°
2026-04-25 09:06 22.45222 56.16614 31916 ft 473 kts 243°
2026-04-25 09:06 22.42168 56.10336 31918 ft 472 kts 243°
2026-04-25 09:07 22.39116 56.04067 31930 ft 472 kts 243°
2026-04-25 09:07 22.36044 55.97776 31924 ft 472 kts 243°
2026-04-25 09:08 22.32980 55.91543 31920 ft 472 kts 243°
2026-04-25 09:08 22.29893 55.85270 31892 ft 472 kts 243°
2026-04-25 09:09 22.26825 55.79036 31889 ft 472 kts 243°
2026-04-25 09:09 22.23739 55.72765 32019 ft 472 kts 243°
2026-04-25 09:09 22.22206 55.69640 32207 ft 471 kts 243°
2026-04-25 09:10 22.20676 55.66521 32377 ft 470 kts 243°
2026-04-25 09:10 22.19145 55.63406 32567 ft 469 kts 243°
2026-04-25 09:10 22.17665 55.60274 32732 ft 467 kts 247°
2026-04-25 09:10 22.16561 55.57030 32872 ft 465 kts 256°
2026-04-25 09:11 22.16161 55.50129 33284 ft 458 kts 276°
2026-04-25 09:11 22.16490 55.46725 33565 ft 455 kts 276°
2026-04-25 09:11 22.16810 55.43322 33760 ft 454 kts 276°
2026-04-25 09:12 22.17123 55.39969 33879 ft 453 kts 276°
2026-04-25 09:12 22.17439 55.36578 33881 ft 452 kts 276°
2026-04-25 09:12 22.18072 55.29807 33882 ft 455 kts 276°
2026-04-25 09:13 22.18704 55.23011 33879 ft 459 kts 276°
2026-04-25 09:13 22.19338 55.16178 33875 ft 460 kts 276°
2026-04-25 09:14 22.19976 55.09276 33875 ft 461 kts 276°
2026-04-25 09:14 22.20609 55.02374 33873 ft 461 kts 276°
2026-04-25 09:15 22.21234 54.95508 33864 ft 463 kts 276°
2026-04-25 09:15 22.21864 54.88564 33869 ft 463 kts 276°
2026-04-25 09:16 22.22486 54.81666 33873 ft 464 kts 276°
2026-04-25 09:16 22.23107 54.74762 33862 ft 456 kts 275°
2026-04-25 09:17 22.24019 54.64535 33879 ft 459 kts 275°
2026-04-25 09:18 22.24630 54.57651 33878 ft 460 kts 275°
2026-04-25 09:18 22.25237 54.50761 33878 ft 460 kts 275°
2026-04-25 09:19 22.25842 54.43895 33853 ft 462 kts 275°
2026-04-25 09:19 22.26448 54.36961 33867 ft 463 kts 275°
2026-04-25 09:20 22.27048 54.30054 33875 ft 464 kts 275°
2026-04-25 09:20 22.27651 54.23093 33869 ft 465 kts 275°
2026-04-25 09:21 22.28251 54.16123 33873 ft 466 kts 275°
2026-04-25 09:21 22.28845 54.09198 33884 ft 466 kts 275°
2026-04-25 09:22 22.29442 54.02205 33888 ft 467 kts 275°
2026-04-25 09:22 22.30033 53.95243 33883 ft 468 kts 275°
2026-04-25 09:23 22.30626 53.88212 33886 ft 469 kts 275°
2026-04-25 09:23 22.31212 53.81231 33891 ft 469 kts 275°
2026-04-25 09:24 22.31799 53.74201 33899 ft 469 kts 275°
2026-04-25 09:24 22.32379 53.67232 33910 ft 468 kts 275°
2026-04-25 09:25 22.32959 53.60219 33904 ft 467 kts 274°
2026-04-25 09:25 22.33534 53.53219 33905 ft 467 kts 274°
2026-04-25 09:26 22.34105 53.46236 33900 ft 467 kts 274°
2026-04-25 09:26 22.34671 53.39277 33905 ft 467 kts 274°
2026-04-25 09:27 22.35237 53.32275 33900 ft 467 kts 274°
2026-04-25 09:27 22.35797 53.25319 33900 ft 467 kts 274°
2026-04-25 09:28 22.36359 53.18324 33907 ft 466 kts 273°
2026-04-25 09:28 22.36914 53.11331 33904 ft 466 kts 273°
2026-04-25 09:29 22.37464 53.04367 33908 ft 466 kts 273°
2026-04-25 09:29 22.38013 52.97415 33902 ft 466 kts 273°
2026-04-25 09:30 22.38561 52.90410 33906 ft 466 kts 272°
2026-04-25 09:30 22.39104 52.83434 33907 ft 467 kts 272°
2026-04-25 09:31 22.39642 52.76478 33912 ft 467 kts 272°
2026-04-25 09:31 22.40182 52.69487 33914 ft 466 kts 272°
2026-04-25 09:32 22.40717 52.62498 33914 ft 466 kts 272°
2026-04-25 09:32 22.41248 52.55509 33914 ft 466 kts 272°
2026-04-25 09:33 22.41772 52.48562 33926 ft 465 kts 273°
2026-04-25 09:33 22.42297 52.41589 33928 ft 464 kts 273°
2026-04-25 09:34 22.42817 52.34662 33923 ft 464 kts 273°
2026-04-25 09:34 22.43334 52.27706 33919 ft 463 kts 274°
2026-04-25 09:35 22.43843 52.20793 33925 ft 462 kts 274°
2026-04-25 09:35 22.44353 52.13852 33924 ft 461 kts 274°
2026-04-25 09:36 22.44856 52.06971 33920 ft 461 kts 274°
2026-04-25 09:36 22.45358 52.00053 33924 ft 460 kts 274°
2026-04-25 09:37 22.45857 51.93144 33923 ft 460 kts 274°
2026-04-25 09:37 22.46352 51.86256 33927 ft 460 kts 274°
2026-04-25 09:38 22.46842 51.79398 33975 ft 460 kts 274°
2026-04-25 09:38 22.47332 51.72507 33995 ft 460 kts 274°
2026-04-25 09:39 22.47820 51.65576 34021 ft 461 kts 273°
2026-04-25 09:39 22.48300 51.58716 34080 ft 460 kts 274°
2026-04-25 09:40 22.49021 51.48345 34155 ft 460 kts 274°
2026-04-25 09:40 22.49498 51.41438 34211 ft 460 kts 274°
2026-04-25 09:41 22.49968 51.34588 34266 ft 459 kts 274°
2026-04-25 09:41 22.50437 51.27700 34385 ft 457 kts 274°
2026-04-25 09:42 22.50899 51.20890 34443 ft 456 kts 274°
2026-04-25 09:42 22.51359 51.14047 34495 ft 455 kts 274°
2026-04-25 09:43 22.51814 51.07245 34549 ft 455 kts 274°
2026-04-25 09:43 22.52268 51.00414 34617 ft 454 kts 274°
2026-04-25 09:44 22.52716 50.93631 34671 ft 453 kts 274°
2026-04-25 09:44 22.53163 50.86814 34731 ft 452 kts 274°
2026-04-25 09:45 22.53604 50.80029 34830 ft 450 kts 274°
2026-04-25 09:45 22.54040 50.73303 34888 ft 450 kts 274°
2026-04-25 09:46 22.54402 50.67686 34933 ft 449 kts 274°
2026-04-25 09:46 22.54902 50.59854 35044 ft 447 kts 274°
2026-04-25 09:47 22.55257 50.54267 35092 ft 446 kts 274°
2026-04-25 09:47 22.55680 50.47567 35147 ft 445 kts 274°
2026-04-25 09:48 22.56099 50.40881 35215 ft 444 kts 274°
2026-04-25 09:48 22.56511 50.34261 35354 ft 441 kts 274°
2026-04-25 09:49 22.56714 50.30984 35683 ft 434 kts 274°
2026-04-25 09:49 22.56914 50.27746 35755 ft 428 kts 274°
2026-04-25 09:49 22.57309 50.21311 35931 ft 428 kts 274°
2026-04-25 09:50 22.57705 50.14864 35927 ft 432 kts 274°
2026-04-25 09:50 22.58100 50.08346 35927 ft 434 kts 274°
2026-04-25 09:51 22.58493 50.01834 35932 ft 435 kts 274°
2026-04-25 09:51 22.58882 49.95327 35927 ft 436 kts 274°
2026-04-25 09:52 22.59272 49.88773 35940 ft 436 kts 274°
2026-04-25 09:52 22.59658 49.82238 35937 ft 436 kts 274°
2026-04-25 09:53 22.60043 49.75677 35927 ft 436 kts 274°
2026-04-25 09:53 22.60422 49.69161 35937 ft 435 kts 274°
2026-04-25 09:54 22.60801 49.62611 35941 ft 435 kts 274°
2026-04-25 09:54 22.61179 49.56058 35931 ft 435 kts 274°
2026-04-25 09:55 22.61550 49.49540 35923 ft 435 kts 274°
2026-04-25 09:55 22.61921 49.42989 35922 ft 436 kts 274°
2026-04-25 09:56 22.62287 49.36467 35928 ft 436 kts 274°
2026-04-25 09:56 22.62653 49.29906 35942 ft 436 kts 274°
2026-04-25 09:57 22.63017 49.23340 35928 ft 436 kts 274°
2026-04-25 09:57 22.63376 49.16809 35926 ft 437 kts 274°
2026-04-25 09:58 22.63734 49.10235 35930 ft 437 kts 274°